DECAYED

CZ-2D DEB, 44601 (Decayed)

Orbit data source: Space-Track

CZ-2D DEB, 44601 was space debris in SSO originally from a launch on Wed, 07 Oct 2015 UTC launched from the Jiuquan Satellite Launch Center, China (JSC). Debris objects in space refer to the collection of defunct objects orbiting the Earth. Examples of debris include non-operational satellites, rocket bodies, and fragments generated from explosions, collisions, or faulty payload assembly.

Not visible in the next 10 days
Identifier
44601, 2015-057E
Orbit
Decayed
Country
Flag of CNCN / PRC
Related business
Manufacturer
Unknown
Mission
Decayed spacecraft
Bus & Motor
Unknown
Mass
Unknown
Launch date (UTC)
2015-10-07 (10 years ago)
Launch vehicle
Unknown
Launch site
Jiuquan Satellite Launch Center, China (JSC)
Object type
Payload
Rocket body
Debris
Shape & HBR
Unknown
Radar Cross Section
Small (<0.1 m²)

Expand to show TLE details & history
Last TLE update: 1 year ago

TLE from 1 year ago
0 CZ-2D DEB
1 44601U 15057E   24150.42155774  .06404224  28558-5  42626-2 0  9997
2 44601  98.0938 323.2239 0020702 302.3455  57.5826 16.16447861465733
Epoch: 2024-05-29T10:07Z
TLE epoch observation values (Epoch: 2024-05-29T10:07:02.588Z)
Latitude
0.00003°
Longitude
-75.96648°
Altitude
225.098 km
Speed
7.776 km/s
True Right ascension
21h 32m 53s
True Declination
0° 00' 00"
Sunlit
Object was in daylight at epoch
Visualization orbit readout
Latitude
Unknown
Longitude
Unknown
Altitude
Unknown
Speed
Unknown
Apparent Right ascension
Unknown
Apparent Declination
Unknown
Sunlit
N/A
Visualization observer readout
Local Sidereal Time
17:38:26
Azimuth
Unknown
Elevation
Unknown
Doppler factor
Unknown
Orbital elements
Apogee altitude
239.757 km
Perigee altitude
212.412 km
Semi-major axis
6,604.222 km
Eccentricity
0.00207
Inclination
98.0938°
RAAN
323.2239°
Arg. of periapsis
302.3455°
True anomaly
57.78314°
Mean anomaly
57.5826°
Eccentric anomaly
57.68284°
Mean motion
4.044 °/min
Orbital period
89.02 mins
BSTAR
0.0042626
Loading maneuver chart data...
Computing Atmospheric mass density...
Loading historical data...
Loading historical data...
Loading historical data...
Loading historical data...
Loading historical data...
Loading historical data...
Loading historical data...
Other satellites on launch #57 in the year 2015 (2015-10-07 UTC)

Documentation

Showing up to 5 results
|